Regional Weather Roundup
Issued by NWS Midland/Odessa, TX

Skip options and go directly to product.
Home | Oldest Version | Previous Version | Current Version | All | Text Only | Save Text | Print | Product List | Glossary On

Skip product version selection by date and time.   
927
ASUS44 KMAF 281410
RWRMAF
MIDLAND AREA WEATHER ROUNDUP
NATIONAL WEATHER SERVICE MIDLAND TX
800 AM CST FRI NOV 28 2014

...IN SOUTHWEST TEXAS AND SOUTHEAST NEW MEXICO...

CITY           SKY/WX    TMP DP  RH WIND       PRES   REMARKS
ALPINE         PTCLDY    47  24  39 W17       30.31R
ANDREWS        FAIR      40  33  76 SW10      30.18S WCI  34
ARTESIA        NOT AVBL
BIG SPRING     CLEAR     43  36  75 S10       30.21S WCI  38
CARLSBAD       CLEAR     29  25  85 W5        30.17S WCI  24
DRYDEN           N/A     40  36  86 N5        30.25S WCI  37
FORT STOCKTON  CLEAR     48  26  42 SW14      30.19S
GUAD PASS      NOT AVBL
HOBBS          CLEAR     32  32 100 S5        30.18S WCI  27
MARFA          PTCLDY    23  19  86 N5        30.31R WCI  17
MIDLAND AIRPK  CLEAR     45  36  72 S10       30.20S WCI  39
MIDLAND INTL   CLEAR     42  34  73 S8        30.19S WCI  37
ODESSA         PTCLDY    41  33  73 S6        30.20R WCI  37
PECOS          PTCLDY    28  24  83 SW3       30.21R
PRESIDIO       FAIR      42  27  57 N5        30.28R WCI  39
SEMINOLE       CLEAR     35  32  89 CALM      30.18R
SNYDER         CLEAR     36  32  87 SW7       30.19S WCI  30
WINK           CLEAR     31  24  75 CALM      30.18S
$$
...OTHER STATIONS IN TEXAS...

CITY           SKY/WX    TMP DP  RH WIND       PRES   REMARKS
ABILENE        CLEAR     49  41  74 S17G31    30.18F
AMARILLO       PTCLDY    39  27  62 SW9       30.06S WCI  33
AUSTIN         PTCLDY    42  40  92 N6        30.32R WCI  38
BROWNSVILLE    MOSUNNY   55  54  96 CALM      30.32S FOG
CORPUS CHRISTI FOG       52  52 100 CALM      30.32R VSB 1/2
DALLAS FTW     PTCLDY    45  32  60 S13       30.23F WCI  39
DEL RIO        FOG       50  50 100 SE12      30.28S VSB 1/2
EL PASO        MOCLDY    33  20  58 N5        30.25S WCI  29
HOUSTON INT    SUNNY     46  43  89 SE6       30.35F
LUBBOCK        PTCLDY    39  29  67 W13       30.14R WCI  31
SAN ANGELO     CLEAR     49  45  86 S10       30.22S
SAN ANTONIO    CLOUDY    48  43  82 CALM      30.33R
WACO           PTCLDY    46  41  82 S12       30.29F
WICHITA FALLS  NOT AVBL
$$
...OTHER LOCATIONS IN NEW MEXICO...

CITY           SKY/WX    TMP DP  RH WIND       PRES   REMARKS
ALAMAGORDO     PTCLDY    32  19  59 CALM      30.27R
ALBUQUERQUE    PTCLDY    32  18  56 CALM      30.28S
CANNON AFB     CLEAR     41  25  53 W15       30.13R WCI  33
CLOVIS         CLEAR     41  25  52 W12       30.12R WCI  34
HOLLOMAN AFB   PTCLDY    28  18  65 E1        30.26R
ROSWELL        PTCLDY    29  23  78 NW3       30.18R
RUIDOSO        PTCLDY    41   9  26 W10       30.31R WCI  35
SANTA FE       PTCLDY    29  19  66 N12       30.29R WCI  19
TRUTH OR CONSE CLEAR     33  18  53 N5        30.26R WCI  29
TUCUMCARI      MOCLDY    42  23  46 CALM      30.08F
$$

USA.gov is the U.S. government's official web portal to all federal, state and local government web resources and services.